Home   Weather   Australia   Sydney   Past weeks
Flag for Australia

Past Weather in Sydney, New South Wales, Australia — Yesterday and Last 2 Weeks

Currently: 52 °F. Passing clouds. (Weather station: Sydney Airport, Australia). See more current weather

Past Weather in Sydney — Graph

°F

Sydney Temperature Yesterday

Maximum temperature yesterday: 66 °F (at 1:00 pm)
Minimum temperature yesterday: 55 °F (at 9:30 pm)
Average temperature yesterday: 61 °F

High & Low Weather Summary for the Past Weeks

 TemperatureHumidityPressure
High86 °F (Apr 9, 3:00 pm)94% (Mar 29, 10:00 pm)30.33 "Hg (Mar 29, 10:00 pm)
Low52 °F (Apr 12, 2:00 am)26% (Apr 11, 2:00 pm)29.56 "Hg (Apr 9, 2:30 pm)
Average69 °F71%30.04 "Hg
* Reported Mar 28 7:00 am — Apr 12 6:00 am, Sydney. Weather by CustomWeather, © 2021

Note: Actual official high and low records may vary slightly from our data, if they occured in-between our weather recording intervals... More about our weather records

Sydney Weather History for the Previous 24 Hours

Scroll right to see more
 ConditionsComfort  
Time TempWeatherWind HumidityBarometerVisibility
6:00 am
Mon, Apr 12
52 °FPassing clouds.17 mph58%30.04 "HgN/A
5:30 am52 °FPassing clouds.18 mph54%30.04 "HgN/A
5:00 am52 °FClear.18 mph54%30.01 "Hg10 mi
4:30 am52 °FClear.17 mph54%30.01 "Hg10 mi
4:00 am52 °FClear.18 mph58%30.01 "Hg10 mi
3:30 am52 °FClear.18 mph58%29.98 "Hg10 mi
3:00 am52 °FClear.15 mph58%29.98 "Hg10 mi
2:30 am52 °FClear.10 mph58%29.98 "Hg10 mi
2:00 am52 °FClear.10 mph54%29.98 "Hg10 mi
1:30 am54 °FClear.7 mph51%29.98 "Hg10 mi
1:00 am54 °FClear.13 mph51%29.98 "Hg10 mi
12:30 am54 °FClear.15 mph54%29.98 "Hg10 mi
12:00 am54 °FClear.14 mph51%29.98 "Hg10 mi
11:30 pm
Sun, Apr 11
55 °FClear.10 mph47%29.98 "HgN/A
11:00 pm55 °FClear.8 mph47%29.98 "Hg10 mi
10:30 pm57 °FClear.8 mph44%29.98 "Hg10 mi
10:00 pm55 °FClear.13 mph44%29.98 "Hg10 mi
9:30 pm55 °FClear.12 mph44%29.98 "Hg10 mi
9:00 pm57 °FClear.20 mph41%29.95 "Hg10 mi
8:30 pm57 °FClear.18 mph41%29.95 "Hg10 mi
7:30 pm59 °FClear.20 mph36%29.95 "Hg10 mi
7:10 pm59 °FClear.20 mph36%29.92 "Hg10 mi
6:30 pm59 °FClear.23 mph36%29.92 "Hg10 mi
6:00 pm61 °FClear.22 mph31%29.89 "Hg10 mi
5:30 pm61 °FSunny.21 mph31%29.89 "Hg10 mi
5:00 pm63 °FSunny.24 mph32%29.86 "Hg10 mi
4:30 pm63 °FSunny.24 mph32%29.86 "Hg10 mi
4:00 pm64 °FSunny.24 mph30%29.83 "Hg10 mi
3:30 pm64 °FSunny.24 mph28%29.83 "Hg10 mi
3:00 pm66 °FSunny.23 mph28%29.83 "Hg10 mi
2:30 pm66 °FSunny.24 mph26%29.80 "Hg10 mi
2:00 pm66 °FSunny.24 mph26%29.80 "Hg10 mi
1:30 pm64 °FSunny.23 mph30%29.80 "Hg10 mi
1:00 pm66 °FSunny.24 mph30%29.80 "Hg10 mi
12:30 pm64 °FSunny.25 mph30%29.80 "Hg10 mi
12:00 pm64 °FSunny.26 mph30%29.80 "Hg10 mi
11:43 am64 °FSunny.24 mph32%29.80 "Hg10 mi
11:00 am63 °FSunny.26 mph34%29.80 "Hg10 mi
10:30 am63 °FSunny.25 mph30%29.80 "Hg10 mi
9:30 am61 °FSunny.28 mph34%29.80 "Hg10 mi
9:00 am61 °FSunny.23 mph36%29.80 "Hg10 mi
8:30 am61 °FSunny.26 mph36%29.80 "Hg10 mi
8:00 am61 °FSunny.29 mph36%29.80 "Hg10 mi
7:34 am61 °FPassing clouds.20 mph36%29.80 "HgN/A
7:00 am61 °FPassing clouds.21 mph48%29.77 "HgN/A
Weather by CustomWeather, © 2021

See weather overview